User: anonymous   Login
Location: Unspecified
(0.0000°N, 0.0000°E)
Time: 09:32:42
(UTC+01:00)
Language:

ASC 2 Rocket - Orbit

View from above orbital plane
View from above orbital plane
View from above satellite
View from above satellite

Ground track
Ground track

The orbit data is extracted from the following two-line orbital elements,

1 21228U 91028B   15029.55402875  .00000758  00000-0  27517-3 0  4932
2 21228 023.9950 082.8177 1144594 331.7063 195.6111 12.53008891 88602
Epoch (UTC): 29 January 2015 13:17:48
Eccentricity: 0.1144594
inclination: 23.9950°
perigee height: 556 km
apogee height: 2348 km
right ascension of ascending node: 82.8177°
argument of perigee: 331.7063°
revolutions per day: 12.53008891
mean anomaly at epoch: 195.6111°
orbit number at epoch: 8860

The dashed part of the orbit path shows where the satellite is in the earth's shadow,  

DLR